TimeEDT,TemperatureF,Dew PointF,Humidity,Sea Level PressureIn,VisibilityMPH,Wind Direction,Wind SpeedMPH,Gust SpeedMPH,PrecipitationIn,Events,Conditions,WindDirDegrees,DateUTC
12:15 AM,52.7,36.0,53,29.73,10.0,WNW,3.5,-,N/A,,Mostly Cloudy,300,2014-04-09 04:15:00
12:35 AM,53.4,35.2,50,29.73,10.0,NW,4.6,-,N/A,,Mostly Cloudy,310,2014-04-09 04:35:00
12:55 AM,52.7,35.1,51,29.73,10.0,NW,4.6,-,N/A,,Overcast,310,2014-04-09 04:55:00
1:15 AM,52.3,34.9,51,29.73,10.0,WNW,4.6,-,N/A,,Mostly Cloudy,300,2014-04-09 05:15:00
1:35 AM,48.4,36.3,63,29.74,10.0,West,4.6,-,N/A,,Mostly Cloudy,270,2014-04-09 05:35:00
1:55 AM,49.1,36.1,61,29.74,10.0,Calm,Calm,-,N/A,,Overcast,0,2014-04-09 05:55:00
2:15 AM,47.5,37.2,68,29.74,10.0,Calm,Calm,-,N/A,,Mostly Cloudy,0,2014-04-09 06:15:00
2:35 AM,47.8,36.1,64,29.74,10.0,Calm,Calm,-,N/A,,Mostly Cloudy,0,2014-04-09 06:35:00
2:55 AM,47.3,36.1,65,29.74,10.0,Calm,Calm,-,N/A,,Overcast,0,2014-04-09 06:55:00
3:15 AM,50.2,36.1,59,29.73,10.0,WNW,3.5,-,N/A,,Overcast,300,2014-04-09 07:15:00
3:35 AM,50.9,36.0,57,29.74,10.0,WNW,3.5,-,N/A,,Overcast,300,2014-04-09 07:35:00
3:55 AM,50.4,36.7,59,29.74,10.0,WNW,4.6,-,N/A,,Overcast,290,2014-04-09 07:55:00
4:15 AM,50.9,37.4,60,29.74,10.0,WNW,4.6,-,N/A,,Overcast,300,2014-04-09 08:15:00
4:35 AM,51.1,37.2,59,29.74,10.0,WNW,3.5,-,N/A,,Overcast,300,2014-04-09 08:35:00
4:55 AM,48.6,38.3,68,29.74,10.0,West,5.8,-,N/A,,Overcast,270,2014-04-09 08:55:00
5:15 AM,48.6,37.4,65,29.75,10.0,West,4.6,-,N/A,,Scattered Clouds,280,2014-04-09 09:15:00
5:35 AM,48.4,36.9,64,29.76,10.0,WNW,4.6,-,N/A,,Clear,290,2014-04-09 09:35:00
5:55 AM,48.6,36.5,63,29.77,10.0,WNW,5.8,-,N/A,,Clear,300,2014-04-09 09:55:00
6:15 AM,48.4,36.5,64,29.78,10.0,NW,4.6,-,N/A,,Scattered Clouds,310,2014-04-09 10:15:00
6:35 AM,48.4,36.0,62,29.79,10.0,NW,5.8,-,N/A,,Scattered Clouds,310,2014-04-09 10:35:00
6:55 AM,47.8,35.8,63,29.81,10.0,WNW,5.8,-,N/A,,Scattered Clouds,300,2014-04-09 10:55:00
7:15 AM,48.2,36.0,63,29.83,10.0,WNW,5.8,-,N/A,,Clear,290,2014-04-09 11:15:00
7:35 AM,48.2,36.5,64,29.84,10.0,WNW,6.9,-,N/A,,Clear,300,2014-04-09 11:35:00
7:55 AM,49.6,37.4,63,29.85,10.0,NW,6.9,-,N/A,,Clear,310,2014-04-09 11:55:00
8:15 AM,51.3,38.1,61,29.86,10.0,WNW,5.8,-,N/A,,Clear,300,2014-04-09 12:15:00
8:35 AM,53.1,38.5,58,29.87,10.0,NW,8.1,-,N/A,,Clear,310,2014-04-09 12:35:00
8:55 AM,54.7,39.4,56,29.87,10.0,NW,8.1,-,N/A,,Clear,310,2014-04-09 12:55:00
9:15 AM,56.1,39.4,53,29.88,10.0,NW,10.4,-,N/A,,Scattered Clouds,310,2014-04-09 13:15:00
9:35 AM,57.6,39.2,50,29.89,10.0,NW,6.9,-,N/A,,Mostly Cloudy,320,2014-04-09 13:35:00
9:55 AM,58.5,40.5,51,29.90,10.0,WNW,12.7,17.3,N/A,,Scattered Clouds,300,2014-04-09 13:55:00
10:15 AM,59.7,38.7,46,29.91,10.0,NW,13.8,-,N/A,,Mostly Cloudy,310,2014-04-09 14:15:00
10:35 AM,58.5,37.9,46,29.92,10.0,NNW,6.9,-,N/A,,Mostly Cloudy,340,2014-04-09 14:35:00
10:55 AM,59.2,39.4,48,29.93,10.0,NW,11.5,16.1,N/A,,Scattered Clouds,310,2014-04-09 14:55:00
11:15 AM,59.7,39.9,48,29.94,10.0,WNW,9.2,16.1,N/A,,Overcast,290,2014-04-09 15:15:00
11:35 AM,-9999,-9999,N/A,-9999,-9999.0,North,-9999.0,-,N/A,,Unknown,0,2014-04-09 15:35:00
11:55 AM,61.0,38.7,44,29.94,10.0,NNW,9.2,17.3,0.03,,Scattered Clouds,330,2014-04-09 15:55:00
12:15 PM,61.0,40.8,47,29.94,10.0,West,12.7,17.3,N/A,,Mostly Cloudy,280,2014-04-09 16:15:00
12:35 PM,61.9,41.5,47,29.94,10.0,WNW,11.5,17.3,N/A,,Mostly Cloudy,290,2014-04-09 16:35:00
12:55 PM,61.3,42.1,49,29.94,10.0,West,13.8,18.4,N/A,,Overcast,270,2014-04-09 16:55:00
1:15 PM,61.2,41.4,48,29.94,10.0,West,10.4,16.1,N/A,,Mostly Cloudy,280,2014-04-09 17:15:00
1:35 PM,61.7,41.5,48,29.95,10.0,WNW,12.7,19.6,N/A,,Mostly Cloudy,290,2014-04-09 17:35:00
1:55 PM,63.9,41.9,45,29.95,10.0,West,15.0,18.4,N/A,,Mostly Cloudy,270,2014-04-09 17:55:00
2:15 PM,62.8,41.4,45,29.95,10.0,NW,8.1,23.0,N/A,,Scattered Clouds,310,2014-04-09 18:15:00
2:35 PM,63.7,37.9,39,29.95,10.0,NW,12.7,18.4,N/A,,Scattered Clouds,310,2014-04-09 18:35:00
2:55 PM,64.8,40.3,41,29.95,10.0,WNW,12.7,19.6,N/A,,Scattered Clouds,290,2014-04-09 18:55:00
3:15 PM,63.1,38.7,40,29.94,10.0,WNW,11.5,19.6,N/A,,Mostly Cloudy,300,2014-04-09 19:15:00
3:35 PM,64.6,41.0,42,29.94,10.0,WNW,9.2,-,N/A,,Mostly Cloudy,300,2014-04-09 19:35:00
3:55 PM,62.4,37.9,40,29.95,10.0,NW,11.5,16.1,N/A,,Mostly Cloudy,320,2014-04-09 19:55:00
4:15 PM,64.2,39.4,40,29.95,10.0,NW,12.7,-,N/A,,Scattered Clouds,310,2014-04-09 20:15:00
4:35 PM,64.9,36.0,34,29.95,10.0,NW,10.4,17.3,N/A,,Scattered Clouds,310,2014-04-09 20:35:00
4:55 PM,64.2,35.2,34,29.95,10.0,NW,8.1,-,N/A,,Mostly Cloudy,320,2014-04-09 20:55:00
5:15 PM,62.4,36.0,37,29.95,10.0,NW,9.2,-,N/A,,Scattered Clouds,310,2014-04-09 21:15:00
5:35 PM,65.3,34.2,31,29.96,10.0,WNW,12.7,19.6,N/A,,Clear,300,2014-04-09 21:35:00
5:55 PM,65.3,32.5,29,29.96,10.0,West,12.7,17.3,N/A,,Clear,270,2014-04-09 21:55:00
6:15 PM,64.6,32.2,30,29.97,10.0,WNW,10.4,19.6,N/A,,Clear,300,2014-04-09 22:15:00
6:35 PM,63.5,30.0,28,29.97,10.0,West,10.4,-,N/A,,Clear,280,2014-04-09 22:35:00
6:55 PM,63.0,31.1,30,29.98,10.0,WNW,9.2,-,N/A,,Clear,290,2014-04-09 22:55:00
7:15 PM,61.9,30.4,31,29.99,10.0,WNW,6.9,-,N/A,,Clear,300,2014-04-09 23:15:00
7:35 PM,60.3,29.8,32,30.00,10.0,WNW,4.6,-,N/A,,Clear,290,2014-04-09 23:35:00
7:55 PM,58.6,30.0,34,30.01,10.0,West,4.6,-,N/A,,Clear,280,2014-04-09 23:55:00
8:15 PM,57.2,30.2,36,30.03,10.0,West,6.9,-,N/A,,Clear,280,2014-04-10 00:15:00
8:35 PM,56.1,30.2,37,30.04,10.0,West,4.6,-,N/A,,Clear,280,2014-04-10 00:35:00
8:55 PM,54.5,30.6,40,30.05,10.0,West,3.5,-,N/A,,Clear,280,2014-04-10 00:55:00
9:15 PM,57.4,28.2,33,30.06,10.0,WNW,3.5,-,N/A,,Clear,290,2014-04-10 01:15:00
9:35 PM,54.0,29.3,39,30.06,10.0,West,3.5,-,N/A,,Clear,270,2014-04-10 01:35:00
9:55 PM,51.8,30.2,44,30.08,10.0,West,3.5,-,N/A,,Clear,280,2014-04-10 01:55:00
10:15 PM,50.2,30.6,47,30.09,10.0,West,4.6,-,N/A,,Clear,270,2014-04-10 02:15:00
10:35 PM,50.5,30.2,46,30.09,10.0,Calm,Calm,-,N/A,,Clear,0,2014-04-10 02:35:00
10:55 PM,45.7,32.0,59,30.10,10.0,Calm,Calm,-,N/A,,Clear,0,2014-04-10 02:55:00
11:15 PM,48.4,31.3,52,30.10,10.0,WSW,3.5,-,N/A,,Clear,250,2014-04-10 03:15:00
11:35 PM,49.5,31.1,49,30.11,10.0,West,3.5,-,N/A,,Clear,260,2014-04-10 03:35:00
11:55 PM,50.0,31.1,48,30.11,10.0,WNW,4.6,-,N/A,,Clear,290,2014-04-10 03:55:00